TIME,DELAY(SENSOR),PRES,T(CTD),SAL,OXYGEN,RAWTEMP,T(OPTODE),TCPHASE,FLUOR,BETA(BETA700),BETA(BETA412),BETA(BETA440),CDOM,C(CSC),ED(ED412.40),ED(ED444.00),ED(ED489.70),ED(ED554.30),LU(LU411.80),LU(LU443.40),LU(LU489.60),LU(LU554.10),COMP,TILTX,TILTX(TILTY),CHECK
1366235205,5807,497.4800109863281000,6.6406998634338380,34.1002006530761700,84.7586288452148400,598.9423828125000000,6.6184267997741700,48.3423614501953100,51,103,88,81,78,14822,2147749220,2147422793,2148005120,2147873673,2147627712,2147072749,2148249545,2147197421,2541,4,13,27499
1366235348,5811,486.5199890136719000,6.9402999877929690,34.0909996032714840,92.2342071533203100,589.9348144531250000,6.9089298248291020,47.3732490539550800,51,103,92,79,79,14825,2147744768,2147423808,2148007597,2147873654,2147626834,2147075200,2148243922,2147197577,1641,4,13,41938
1366235516,5808,472.7500000000000000,7.1775999069213870,34.0923004150390600,100.1549987792968800,581.8369750976562000,7.1694512367248535,46.3952713012695300,51,102,88,79,78,14823,2147749504,2147423853,2148009508,2147869769,2147624914,2147079442,2148237174,2147196891,1614,4,13,10485
1366235626,5805,462.1000061035156000,7.4078998565673830,34.0943984985351560,108.6209030151367200,574.8914794921875000,7.3924221992492680,45.4110717773437500,52,103,89,80,77,14817,2147745563,2147428251,2148007972,2147872521,2147626432,2147080950,2148238976,2147198774,506,4,12,54394
1366235749,5806,450.4700012207031000,7.6156997680664060,34.0909996032714840,115.4160003662109400,568.5864868164062000,7.5944647789001465,44.6332893371582000,50,104,86,81,77,14820,2147744722,2147422948,2148004352,2147872274,2147622555,2147083867,2148237476,2147199149,3169,4,13,37410
1366235870,5810,439.3599853515625000,7.7645001411437990,34.0852012634277340,124.5594024658203100,563.1824951171875000,7.7673568725585940,43.6742515563964840,50,103,83,79,76,14820,2147746870,2147421586,2148005632,2147873929,2147621878,2147081344,2148241563,2147196690,2539,4,13,45131
1366235991,5807,428.5599975585937500,8.0825996398925780,34.0831985473632800,132.3417968750000000,553.2651977539062000,8.0839958190917970,42.7972602844238300,50,105,87,79,75,14821,2147743277,2147424356,2148003611,2147868845,2147622592,2147087149,2148238025,2147199954,2123,4,13,39645
1366236125,5809,417.1700134277344000,8.3491001129150390,34.0797004699707000,146.6134033203125000,543.9719238281250000,8.3799667358398440,41.4136199951171900,50,104,91,80,75,14822,2147745307,2147427913,2148004004,2147870857,2147622729,2147094610,2148235739,2147200091,1694,4,13,41211
1366236257,5806,406.3099975585937500,8.5579996109008790,34.0867996215820300,155.0386962890625000,538.6677246093750000,8.5485801696777340,40.6408691406250000,50,105,90,80,74,14824,2147738834,2147421915,2148001901,2147873051,2147621467,2147092370,2148234185,2147195830,554,4,13,40726
1366236391,5810,395.2600097656250000,8.9616003036499020,34.0924987792968750,161.5666961669922000,524.8378295898438000,8.9871692657470700,39.8945007324218750,50,103,89,81,74,14822,2147738249,2147422802,2148007826,2147871789,2147620187,2147094482,2148231424,2147199542,3348,4,13,18280
1366236523,5809,384.2900085449219000,9.1363000869750980,34.0905990600585940,173.2299957275390600,520.1837158203125000,9.1344356536865230,38.9520492553710940,49,103,88,78,73,14822,2147740013,2147422857,2148002176,2147873252,2147616128,2147094948,2148226742,2147199085,2459,3,13,8129
1366236655,5809,373.3999938964844000,9.2334003448486330,34.0936012268066400,177.5099945068359400,517.0490722656250000,9.2335300445556640,38.5957298278808600,50,102,86,81,72,14820,2147741046,2147423606,2148003437,2147872329,2147616685,2147094628,2148228827,2147202697,1325,4,13,883
1366236789,5809,362.4599914550781000,9.5623998641967770,34.0982017517089840,180.8881072998047000,506.8334045410156000,9.5559797286987300,38.1857490539550800,50,103,85,78,72,14818,2147735369,2147424612,2148006253,2147875181,2147617243,2147096100,2148227364,2147201984,1869,4,13,64689
1366236932,5803,351.8800048828125000,9.8204002380371100,34.1022987365722660,190.5095062255859400,498.9212951660156000,9.8052053451538090,37.4075393676757800,48,104,88,79,71,14820,2147738861,2147421933,2148005421,2147871552,2147612187,2147094966,2148226349,2147202560,1386,4,14,61738
1366237089,5807,339.3299865722656000,10.1040000915527340,34.1105003356933600,196.1479034423828000,489.4534912109375000,10.1028604507446290,36.8865089416503900,49,102,86,79,71,14822,2147733851,2147425636,2148011300,2147870729,2147611958,2147101019,2148227273,2147202697,465,4,13,8369
1366237210,5808,327.6099853515625000,10.3357000350952150,34.1133003234863300,196.6213073730468800,481.6903076171875000,10.3464803695678710,36.7261009216308600,50,103,88,81,70,14818,2147730642,2147426386,2148011830,2147875446,2147610816,2147106230,2148231661,2147199661,3447,4,13,15270
1366237322,5809,317.3200073242187500,10.6620998382568360,34.1249008178710940,201.6976013183593800,471.8371887207031000,10.6551303863525390,36.2475090026855500,49,103,89,81,70,14817,2147734848,2147428370,2148017810,2147872905,2147605366,2147108617,2148226002,2147204205,2275,3,13,40990
1366237443,5810,306.1400146484375000,11.0146999359130860,34.1291007995605500,203.0657958984375000,459.8156127929687500,11.0308799743652340,35.9661712646484400,49,103,86,81,70,14814,2147732278,2147429906,2148024804,2147875282,2147607122,2147106166,2148228800,2147203584,1313,3,13,50531
1366237564,5808,295.6400146484375000,11.3919000625610350,34.1400985717773440,205.2178955078125000,448.7044067382812500,11.3774099349975590,35.6558418273925800,49,104,86,81,68,14818,2147727643,2147434706,2148033700,2147875986,2147606400,2147110857,2148232941,2147204690,3458,3,13,42456
1366237698,5806,284.7799987792969000,11.9376001358032230,34.1512985229492200,205.5377960205078000,430.4201965332031000,11.9461603164672850,35.3418807983398440,49,102,87,80,70,14819,2147728594,2147433353,2148043684,2147875620,2147601865,2147114971,2148235483,2147203501,2419,3,13,10461
1366237852,5807,274.3900146484375000,13.2592000961303710,34.2303009033203100,210.7167968750000000,388.2410888671875000,13.2518501281738280,34.3771018981933600,47,104,87,80,67,14819,2147725760,2147438290,2148062299,2147874944,2147596498,2147130752,2148243611,2147207241,2814,3,14,33220
1366238019,5803,262.6199951171875000,14.2473001480102540,34.3386001586914060,216.5272064208984400,356.7414855957031000,14.2220897674560550,33.5716209411621100,48,103,84,80,67,14814,2147724516,2147451364,2148087652,2147870875,2147587401,2147144091,2148246354,2147206125,2144,3,13,64170
1366238151,5812,250.9100036621093800,14.8444995880126950,34.4025993347168000,219.0117034912109400,336.1140136718750000,14.8556499481201170,33.1291313171386700,49,105,89,79,65,14811,2147723264,2147465600,2148130998,2147876434,2147589705,2147159945,2148259520,2147210989,39,4,13,6398
1366238263,5808,240.5899963378906200,15.3378000259399410,34.4614982604980500,216.1571960449218800,318.8583068847656000,15.3847398757934570,33.0310096740722660,48,103,85,80,67,14809,2147724416,2147476525,2148157650,2147873590,2147585499,2147172571,2148270262,2147210468,160,3,14,4718
1366238395,5809,229.7500000000000000,15.7083997726440430,34.5045013427734400,216.0829010009765600,308.2026062011719000,15.7111101150512700,32.8799781799316400,49,102,90,80,66,14807,2147722130,2147465362,2148097938,2147872896,2147583341,2147164580,2148240301,2147213412,3096,4,14,50349
1366238538,5808,218.9199981689453000,16.1807994842529300,34.5531997680664060,215.4692993164062500,292.4879150390625000,16.1920204162597660,32.6862907409668000,48,103,84,80,66,14808,2147730276,2147557174,2148345197,2147872676,2147584548,2147220269,2148359652,2147220891,2522,2,14,3567
1366238683,5809,207.9499969482422000,16.9666996002197270,34.6492996215820300,214.3307952880859400,266.6864013671875000,16.9807891845703120,32.3806381225585940,49,103,87,80,65,14806,2147746468,2147609316,2148450084,2147872685,2147588123,2147253833,2148406765,2147220781,2994,3,15,10861
1366238826,5808,197.7599945068359400,17.6016006469726560,34.7369003295898440,211.7144012451172000,245.1336975097656200,17.6391696929931640,32.2202491760253900,49,105,86,80,65,14805,2147771465,2147715401,2148659154,2147875739,2147596562,2147325650,2148509942,2147231478,2206,3,15,4129
1366238881,5807,193.9400024414062500,18.0704002380371100,34.7981986999511700,211.5558013916015600,232.4064941406250000,18.0278491973876950,32.0510787963867200,50,109,88,81,64,14798,2147782372,2147754971,2148729536,2147873353,2147600868,2147350427,2148545517,2147235977,1834,3,15,54389
1366238956,5804,189.2400054931640600,18.3227996826171880,34.8344001770019500,212.1941070556640600,223.5050964355468800,18.2996807098388670,31.8925895690917970,51,109,87,81,66,14797,2147803172,2147821952,2148857398,2147871094,2147609042,2147397165,2148607908,2147239652,2339,2,15,14375
1366239022,5809,185.6399993896484400,18.4699001312255860,34.8563995361328100,212.3800048828125000,218.3088989257812500,18.4583606719970700,31.8106994628906250,51,110,88,80,64,14798,2147827629,2147888530,2148975158,2147874048,2147616347,2147436132,2148665380,2147242002,2074,3,15,21658
1366239099,5805,181.6499938964843800,18.7008991241455080,34.8841018676757800,211.8099975585937500,210.3126068115234400,18.7025794982910160,31.7316207885742200,52,109,86,79,65,14790,2147857307,2147973659,2149125723,2147878043,2147633161,2147487853,2148742912,2147248539,2029,2,15,4158
1366239187,5808,177.6199951171875000,19.1462993621826170,34.9327011108398440,210.4459991455078000,197.7700042724609400,19.0857105255126950,31.6340599060058600,56,112,89,81,65,14786,2147888713,2148033389,2149228004,2147876982,2147641142,2147525641,2148789997,2147255963,2343,2,16,52915
1366239288,5809,173.8399963378906200,19.2833995819091800,34.9511985778808600,209.1963958740234400,191.4701995849609400,19.2781906127929700,31.6166496276855470,58,110,90,82,64,14782,2147920521,2148104548,2149354130,2147874185,2147652672,2147576740,2148852013,2147260516,2242,2,15,55503
1366239398,5807,170.1000061035156200,19.5953006744384770,34.9892005920410160,209.0556945800781200,181.7723999023437500,19.5745697021484380,31.4921607971191400,61,110,89,80,65,14783,2147969874,2148216768,2149546514,2147881563,2147672237,2147638656,2148939008,2147269677,791,2,15,65045
1366239573,5808,165.9799957275390600,19.9043006896972660,35.0359001159668000,211.1526031494140600,171.4954986572265600,19.8887691497802730,31.2384395599365230,64,113,88,83,64,14769,2148038454,2148337664,2149747757,2147882605,2147699465,2147710208,2149033545,2147272512,3143,2,15,35246
1366239694,5809,161.8999938964843800,20.2194995880126950,35.0754013061523440,212.8553924560547000,161.0856018066406200,20.2071990966796880,31.0066299438476560,69,113,89,81,63,14771,2148116955,2148478628,2149971958,2147880356,2147731099,2147789110,2149137014,2147281654,2009,2,15,31569
1366239804,5811,158.0099945068359400,20.5800991058349600,35.1105003356933600,212.6694030761718800,149.6587066650390600,20.5569591522216800,30.8637790679931640,80,118,88,81,63,14764,2148217764,2148648758,2150249124,2147887561,2147770550,2147883163,2149250185,2147290934,1648,2,15,38568
1366239904,5808,153.3699951171875000,20.8050994873046880,35.1338996887207000,212.2801971435547000,141.9403991699218800,20.7933597564697270,30.7818508148193360,84,121,90,82,62,14745,2148373467,2148904786,2150652882,2147886921,2147832000,2148009462,2149417673,2147299574,1276,2,15,12331
1366239981,5810,149.0099945068359400,20.9132995605468750,35.1435012817382800,213.0639038085937500,137.8677062988281200,20.9181499481201170,30.6860599517822270,89,119,89,83,63,14746,2148597138,2149285028,2151261723,2147895058,2147916388,2148197211,2149678674,2147321792,3544,2,15,34392
1366240047,5808,145.3399963378906200,21.1741008758544920,35.1641006469726560,213.2570037841797000,130.2301940917968800,21.1522808074951170,30.5746994018554700,97,126,90,82,62,14735,2148813220,2149629769,2151784749,2147900114,2148000914,2148356928,2149892425,2147341714,2506,2,15,27136
1366240124,5806,141.5800018310547000,21.2381992340087900,35.1702003479003900,214.4015960693359400,127.9310989379882800,21.2227897644042970,30.4836807250976560,100,122,91,82,61,14730,2149086025,2150030445,2152373924,2147906176,2148102336,2148548790,2150114148,2147359058,1462,2,16,34086
1366240214,5808,137.2799987792968800,21.3152008056640620,35.1768989562988300,215.3704071044922000,124.8149032592773400,21.3183708190917970,30.3920192718505860,103,125,89,81,62,14724,2149550573,2150699273,2153331254,2147918774,2148278363,2148845842,2150482084,2147392018,1103,2,16,49875
1366240291,5810,134.0200042724609400,21.5846004486084000,35.1917991638183600,216.0330047607422000,116.9393997192382800,21.5600700378417970,30.2541503906250000,107,127,89,83,63,14723,2149970752,2151252790,2154099666,2147931437,2148430957,2149084425,2150765833,2147416054,826,2,15,43955
1366240423,5808,130.4199981689453000,21.9022998809814450,35.2196998596191400,218.3563995361328000,106.3004989624023400,21.8868598937988280,29.9956207275390620,128,123,89,84,62,14705,2150581494,2152040192,2155133248,2147944027,2148651218,2149396754,2151139785,2147452836,2356,2,15,59720
1366240567,5808,125.4800033569336000,22.1485004425048830,35.2374992370605500,220.7028045654297000,98.8855285644531200,22.1148300170898440,29.7803993225097660,116,126,88,83,62,14697,2151780489,2153460772,2156919890,2147974153,2149103680,2150008274,2151816283,2147511323,643,2,15,19804
1366240655,5806,121.8499984741211000,22.4055004119873050,35.2569007873535160,221.5289001464843800,90.4340209960937500,22.3749008178710940,29.6297092437744140,126,124,92,83,60,14695,2152854500,2154742710,2158474121,2148002185,2149528036,2150566747,2152409188,2147569819,1278,2,15,13893
1366240754,5813,117.8199996948242200,22.6625995635986330,35.3184013366699200,225.5092926025390600,81.9142608642578100,22.6373291015625000,29.3235492706298830,127,122,89,83,60,14688,2154419748,2156620534,2160770697,2148051355,2150216347,2151456658,2153350262,2147656950,1262,2,15,52308
1366240844,5810,113.7300033569336000,22.7285003662109380,35.3400993347168000,231.6360015869140600,79.2237625122070300,22.7202491760253900,28.9944705963134770,127,129,90,83,59,14689,2155878381,2158343213,2162851437,2148101458,2150986349,2152353270,2154218678,2147739995,345,2,15,58367
1366240932,5809,109.4000015258789000,22.7859992980957030,35.3468017578125000,234.3742065429687500,77.2031097412109400,22.7825603485107420,28.8404502868652340,130,123,90,83,59,14677,2157929481,2160840786,2165878646,2148185536,2152070875,2153653632,2155521033,2147865554,3213,2,16,15810
1366241009,5810,105.6699981689453100,22.8642997741699220,35.3489990234375000,235.6558074951172000,74.9832077026367200,22.8510208129882800,28.7527599334716800,133,125,88,83,60,14667,2159369792,2162504886,2167705289,2148254381,2152854784,2154471908,2156219620,2147947867,3293,2,16,24840
1366241097,5808,101.9100036621093800,22.8785991668701170,35.3488998413085940,236.8618927001953000,74.2520904541015600,22.8735694885253900,28.6880302429199220,133,124,88,83,60,14650,2162391990,2166196571,2172036068,2148383469,2154400950,2156311305,2158061760,2148120667,3420,2,16,35726
1366241176,5810,98.9300003051757800,22.9183006286621100,35.3462982177734400,237.1040039062500000,72.8979415893554700,22.9153499603271500,28.6598892211914060,137,126,91,82,60,14645,2165230848,2169637613,2175831286,2148507273,2155825444,2157928000,2159607762,2148280630,3033,2,16,41226
1366241231,5809,97.2300033569336000,22.9570007324218750,35.3484992980957000,237.0975036621093800,71.5876464843750000,22.9557800292968750,28.6436805725097660,142,122,89,84,58,14645,2166808704,2171534326,2177783030,2148582509,2156668288,2158845403,2160433938,2148370084,2359,1,16,65224
1366241308,5808,95.1699981689453100,22.9871006011962900,35.3482017517089840,237.4640960693359400,70.8499526977539000,22.9785404205322270,28.6174793243408200,132,127,89,83,59,14642,2169486025,2174672676,2180954066,2148685065,2158105115,2160457728,2161854656,2148521444,1702,1,16,168
1366241385,5805,93.3199996948242200,23.0135002136230470,35.3513984680175800,238.3592987060547000,69.8181762695312500,23.0103893280029300,28.5635890960693360,121,122,88,83,59,14650,2172415433,2178138550,2184619776,2148832374,2159647168,2162206637,2163420032,2148681563,1207,2,16,54492
1366241486,5808,90.2500000000000000,23.0496997833251950,35.3503990173339840,239.2776031494140600,68.7315368652343800,23.0439300537109380,28.5081405639648440,112,121,92,85,57,14646,2178225947,2184858587,2191355620,2149099565,2162857408,2165816091,2166608237,2149014665,774,2,15,47570
1366241541,5806,87.7200012207031200,23.0881996154785160,35.3432006835937500,239.3796997070312500,67.4747467041015600,23.0827293395996100,28.4877796173095700,100,119,90,84,58,14646,2183602962,2190879478,2197119140,2149364918,2165963492,2169262738,2169504384,2149318720,951,1,15,53195
1366241596,5808,85.2699966430664000,23.0898990631103500,35.3364982604980500,238.6224975585937500,67.2816009521484400,23.0886898040771500,28.5198307037353500,100,121,89,82,61,14657,2189256886,2197004480,2202825600,2149662802,2168909129,2172548534,2172257590,2149616621,579,2,16,6469
1366241651,5805,82.8399963378906200,23.1012992858886720,35.3381996154785160,238.2845001220703000,66.8583068847656200,23.1017608642578120,28.5299797058105470,91,119,88,81,60,14633,2193344310,2201032832,2205956708,2149928502,2171102043,2174797787,2173854381,2149819044,3556,2,16,55260
1366241706,5811,80.3000030517578100,23.1758003234863280,35.3512992858886700,238.9768066406250000,64.5887527465820300,23.1718502044677730,28.4698600769042970,77,118,88,82,58,14684,2199351826,2207333083,2211646985,2150318811,2174746038,2178773010,2177036032,2150167862,3348,1,16,49280
1366241761,5808,77.6999969482421900,23.2436008453369140,35.3521003723144500,239.4871978759765600,61.9747695922851560,23.2526092529296880,28.4140491485595700,71,119,88,83,59,14683,2205471305,2213530624,2217072475,2150791798,2178889865,2183068379,2180260370,2150524790,3115,2,15,14603
1366241818,5808,75.1800003051757800,23.3379001617431640,35.3544006347656250,239.8917999267578000,59.1655616760253900,23.3394298553466800,28.3606300354003900,67,119,92,85,60,14683,2211597778,2219886793,2222705334,2151294784,2184268873,2188720018,2184427529,2150996470,2324,1,16,48899
1366241873,5804,72.8600006103515600,23.4405994415283200,35.3578987121582000,240.2308959960937500,56.1836585998535160,23.4316196441650400,28.3081493377685550,65,119,89,82,58,14682,2217713270,2225901814,2228177874,2151883712,2189271753,2193903204,2188134217,2151424265,1651,1,16,55201
1366241928,5810,70.5599975585937500,23.4694004058837900,35.3502006530761700,240.2617950439453000,55.0979995727539060,23.4651908874511720,28.2931404113769530,63,119,89,84,57,14675,2224515666,2232322852,2234017910,2152502528,2195028726,2199966235,2192658441,2151917997,1166,2,16,32602
1366241983,5808,68.2500000000000000,23.5128002166748050,35.3489990234375000,239.7310028076172000,53.4462509155273440,23.5162906646728500,28.2963905334472660,63,119,90,85,58,14679,2233068662,2241166098,2242667163,2153504301,2200746441,2205933668,2197034038,2152468388,1038,2,15,28950
1366242038,5804,66.0400009155273400,23.6252002716064450,35.3442993164062500,239.2693023681640600,50.6500282287597660,23.6028099060058600,28.2823905944824220,62,119,90,83,58,14684,2238200978,2245544356,2246234102,2154178861,2205116854,2210280292,2199985700,2152889472,1419,2,15,1292
1366242093,5808,64.1299972534179700,23.6891994476318360,35.3468017578125000,239.0276947021484400,48.2031402587890600,23.6785507202148440,28.2628402709960940,60,120,89,82,58,14685,2243738523,2250903588,2251123565,2155031661,2210352777,2215560832,2203818084,2153344173,1893,2,16,32505
1366242161,5808,61.9900016784668000,23.7082996368408200,35.3508987426757800,239.2398071289062500,47.2033386230468750,23.7095108032226560,28.2407493591308600,60,120,91,83,55,14679,2251187739,2258241709,2258189568,2156124114,2216622656,2221943826,2208476809,2153948406,2159,2,16,547
1366242227,5804,59.8400001525878900,23.7364997863769530,35.3503990173339840,239.5348968505859400,46.3746604919433600,23.7351703643798830,28.2172203063964840,60,120,91,85,58,14681,2259191817,2265832493,2265580242,2157433947,2223094336,2227995254,2212594806,2154526354,2648,1,16,51422
1366242282,5808,58.0400009155273440,23.7730998992919920,35.3518981933593750,240.0713958740234400,45.0396881103515600,23.7765197753906250,28.1764392852783200,59,120,92,83,58,14677,2263568667,2269505691,2269071506,2158427200,2228244690,2232906889,2216003282,2154941961,3019,1,16,41433
1366242348,5808,56.0400009155273440,23.8134994506835940,35.3530006408691400,240.4382934570312500,43.7253684997558600,23.8172302246093750,28.1436691284179700,58,122,91,85,58,14674,2275616457,2281173714,2280586843,2160551387,2238110930,2242742738,2223157641,2155976338,415,1,16,2112
1366242414,5806,54.1800003051757800,23.8344993591308600,35.3535995483398440,240.9398040771484400,42.9601287841796900,23.8409404754638670,28.1116409301757800,60,121,94,82,58,14677,2283297627,2288448594,2287567286,2161848822,2246552603,2250783826,2228771858,2156812882,456,1,16,24467
1366242492,5809,51.3800010681152340,23.8694992065429700,35.3544006347656250,241.2250976562500000,41.8397483825683600,23.8756599426269530,28.0850601196289060,58,122,92,83,59,14672,2297984438,2302227072,2300554358,2165272932,2261795620,2264790720,2238124178,2158137170,3503,2,16,58450
1366242547,5808,48.6100006103515600,23.9489994049072270,35.3580017089843750,241.2823028564453000,39.4422302246093750,23.9499797821044920,28.0527992248535160,56,122,92,84,60,14665,2311105536,2314681389,2312276105,2168775040,2278270994,2280043072,2248652406,2159759259,3136,2,16,14865
1366242602,5806,45.8800010681152340,24.0174999237060550,35.3610992431640600,241.4920959472656200,37.0664482116699200,24.0236396789550780,28.0139503479003900,56,118,94,84,54,14666,2326579986,2329703689,2328030637,2173986020,2294217334,2294174153,2257820644,2161502848,3556,2,16,31344
1366242657,5803,43.1899986267089840,24.1291999816894530,35.3689994812011700,241.7707977294922000,33.4748916625976560,24.1350708007812500,27.9571208953857420,55,122,91,85,56,14661,2335949677,2337713334,2335244416,2177650605,2312055762,2310287332,2268657051,2163330048,3581,2,16,20569
1366242712,5806,40.6500015258789060,24.2332000732421880,35.3713989257812500,242.1851043701172000,30.2736701965332030,24.2344303131103500,27.8992004394531250,55,117,92,85,60,14665,2354023926,2356284864,2355533814,2184952457,2331090880,2327132461,2279860617,2165679094,215,2,16,63436
1366242767,5808,38.3699989318847660,24.2779006958007800,35.3748016357421900,242.1994934082031200,28.6410999298095700,24.2851295471191400,27.8783702850341800,55,117,90,85,57,14660,2361370541,2363813430,2363083492,2190076141,2344086509,2337528475,2286130020,2167045686,3167,1,16,50926
1366242824,5807,36.0900001525878900,24.3029003143310550,35.3758010864257800,242.3175964355468800,27.5068607330322270,24.3203506469726560,27.8591403961181640,54,118,93,84,58,14655,2376091830,2379208649,2379195254,2197526665,2365976658,2357014921,2299152045,2169847506,2838,2,16,34729
1366242879,5808,33.9900016784668000,24.3668003082275400,35.3694992065429700,242.1058044433593800,25.3160591125488280,24.3884201049804700,27.8414497375488280,54,117,89,83,56,14657,2395774692,2398157467,2398587922,2206535104,2389371904,2377953005,2313349632,2172428242,3172,2,16,33713
1366242934,5805,32.0999984741210940,24.4314994812011720,35.3614997863769500,241.9241943359375000,23.4025192260742200,24.4478893280029300,27.8259105682373050,53,117,92,85,58,14659,2388991497,2391237238,2392740854,2209933632,2392187117,2379081225,2313762834,2173505051,3086,1,17,10696
1366243000,5807,30.2299995422363280,24.4789009094238280,35.3524017333984400,241.6058959960937500,21.8842201232910160,24.4950904846191400,27.8212890625000000,54,117,89,86,52,14666,2397269184,2400322944,2402570733,2217994880,2409419117,2393420114,2322943341,2176688521,2596,1,16,51018